Bellingham, WA

1:44 AM PDT on September 22, 2017 (GMT -0700)
Bellingham International

Weather History for KBLI - January, 2014

Change the Weather History Date:

Wednesday, January 22, 2014

  Actual Average Record
Temperature  
Mean Temperature 39 °F 40 °F  
Max Temperature 48 °F 46 °F 65 °F (1981)
Min Temperature 30 °F 33 °F 11 °F (1969)
Degree Days  
Heating Degree Days 26 25  
Month to date heating degree days 507 573  
Cooling Degree Days 0 0  
Month to date cooling degree days 0 0  
Year to date cooling degree days 0 0  
Moisture  
Dew Point 33 °F    
Average Humidity 83    
Maximum Humidity 100    
Minimum Humidity 65    
Precipitation  
Precipitation T in 0.14 in 1.06 in (1953)
Month to date precipitation 2.24 3.39  
Year to date precipitation 2.24 3.39  
Sea Level Pressure  
Sea Level Pressure 30.44 in    
Wind  
Wind Speed 2 mph (North)    
Max Wind Speed 7 mph    
Max Gust Speed 9 mph    
Visibility 7 miles    
Events Fog    
T = Trace of Precipitation, MM = Missing Value Source: NWS Daily Summary

Daily Weather History Graph

Daily Weather History Graph

Search for Another Location

Airport or City:

Trip Planner

Search our weather history database for the weather conditions in past years. The results will help you decide how hot, cold, wet, or windy it might be!

Date:

Astronomy

Jan. 22, 2014 Rise Set
Actual Time 7:51 AM PST 4:52 PM PST
Civil Twilight 7:16 AM PST 5:27 PM PST
Nautical Twilight 6:38 AM PST 6:05 PM PST
Astronomical Twilight 6:00 AM PST 6:43 PM PST
Moon No Moon Rise 10:21 AM PST
Length of Visible Light 10h 10m
Length of Day
9h 00m
Waning Gibbous, 64% of the Moon is Illuminated
Jan 22
Waning Gibbous
Jan 23
Last Quarter
Jan 30
New
Feb 6
First Quarter
Feb 14
Full

Hourly Weather History & Observations

Time (PST) Temp. Windchill Dew Point Humidity Pressure Visibility Wind Dir Wind Speed Gust Speed Precip Events Conditions
12:53 AM 37.9 °F 35.5 °F 36.0 °F 93% 30.37 in 8.0 mi NNW 3.5 mph - N/A   Overcast
1:16 AM 39.2 °F - 37.4 °F 93% 30.34 in 10.0 mi Calm Calm - N/A   Overcast
1:53 AM 39.9 °F - 36.0 °F 86% 30.37 in 10.0 mi Calm Calm - N/A   Overcast
2:53 AM 36.0 °F - 34.0 °F 93% 30.39 in 10.0 mi Calm Calm - 0.00 in   Partly Cloudy
3:53 AM 36.0 °F - 34.0 °F 93% 30.40 in 8.0 mi Calm Calm - N/A   Overcast
4:53 AM 39.0 °F 36.8 °F 36.0 °F 89% 30.42 in 9.0 mi North 3.5 mph - N/A   Overcast
5:53 AM 39.0 °F - 35.1 °F 86% 30.42 in 10.0 mi Calm Calm - N/A   Overcast
6:53 AM 39.9 °F - 35.1 °F 83% 30.42 in 10.0 mi Calm Calm - N/A   Overcast
7:53 AM 39.9 °F - 34.0 °F 79% 30.42 in 10.0 mi Calm Calm - N/A   Overcast
8:34 AM 39.2 °F - 33.8 °F 81% 30.39 in 10.0 mi Calm Calm - N/A   Overcast
8:53 AM 39.9 °F 36.7 °F 34.0 °F 79% 30.43 in 10.0 mi NNW 4.6 mph - N/A   Overcast
9:53 AM 39.9 °F 36.7 °F 34.0 °F 79% 30.44 in 10.0 mi North 4.6 mph - N/A   Overcast
10:53 AM 42.1 °F 40.2 °F 34.0 °F 73% 30.47 in 10.0 mi NNW 3.5 mph - N/A   Overcast
11:27 AM 42.8 °F 41.1 °F 33.8 °F 70% 30.45 in 10.0 mi NNW 3.5 mph - N/A   Overcast
11:53 AM 43.0 °F 40.3 °F 34.0 °F 71% 30.48 in 10.0 mi North 4.6 mph - N/A   Overcast
12:05 PM 42.8 °F 39.3 °F 35.6 °F 76% 30.44 in 10.0 mi North 5.8 mph - N/A   Overcast
12:53 PM 45.0 °F 43.5 °F 36.0 °F 71% 30.46 in 10.0 mi NNE 3.5 mph - N/A   Overcast
1:06 PM 44.6 °F 43.1 °F 35.6 °F 71% 30.44 in 10.0 mi NNE 3.5 mph - N/A   Overcast
1:53 PM 46.9 °F - 36.0 °F 66% 30.45 in 10.0 mi NNE 3.5 mph - N/A   Partly Cloudy
2:53 PM 46.9 °F - 36.0 °F 66% 30.45 in 10.0 mi Variable 4.6 mph - N/A   Partly Cloudy
3:53 PM 46.0 °F - 37.9 °F 73% 30.45 in 10.0 mi Calm Calm - N/A   Clear
4:53 PM 44.1 °F 41.5 °F 37.9 °F 79% 30.45 in 9.0 mi WNW 4.6 mph - N/A   Scattered Clouds
5:53 PM 39.9 °F - 37.0 °F 89% 30.46 in 8.0 mi Calm Calm - N/A   Scattered Clouds
6:53 PM 37.0 °F - 35.1 °F 93% 30.46 in 4.0 mi Calm Calm - N/A   Partly Cloudy
7:53 PM 34.0 °F - 33.1 °F 96% 30.47 in 8.0 mi Calm Calm - N/A   Clear
8:53 PM 35.1 °F - 33.1 °F 92% 30.47 in 8.0 mi Calm Calm - N/A   Clear
9:53 PM 33.1 °F - 32.0 °F 96% 30.48 in 8.0 mi Calm Calm - N/A   Clear
10:14 PM 33.8 °F - 32.0 °F 93% 30.46 in 8.0 mi Calm Calm - N/A   Partly Cloudy
10:25 PM 32.0 °F - 30.2 °F 93% 30.45 in 1.5 mi Calm Calm - N/A   Mostly Cloudy
10:43 PM 30.2 °F - 28.4 °F 93% 30.46 in 0.8 mi Calm Calm - N/A   Mist
10:50 PM 33.8 °F 30.8 °F 30.2 °F 87% 30.46 in 1.2 mi WNW 3.5 mph - N/A   Mostly Cloudy
10:53 PM 32.0 °F - 30.9 °F 96% 30.49 in 0.8 mi Calm Calm - N/A   Mist
11:02 PM 32.0 °F - 30.2 °F 93% 30.45 in 0.5 mi Calm Calm - N/A Fog Fog
11:06 PM 32.0 °F - 32.0 °F 100% 30.45 in 1.0 mi Calm Calm - N/A   Mist
11:13 PM 33.8 °F - 30.2 °F 87% 30.46 in 0.8 mi Calm Calm - N/A   Mist
11:18 PM 30.2 °F - 30.2 °F 100% 30.46 in 1.2 mi Calm Calm - N/A   Partly Cloudy
11:27 PM 30.2 °F - 30.2 °F 100% 30.46 in 2.5 mi Calm Calm - N/A   Partly Cloudy
11:34 PM 30.2 °F - 28.4 °F 93% 30.46 in 3.0 mi Calm Calm - N/A   Partly Cloudy
11:44 PM 30.2 °F - 30.2 °F 100% 30.47 in 2.5 mi Calm Calm - N/A   Mostly Cloudy
11:53 PM 32.0 °F - 30.0 °F 92% 30.49 in 1.0 mi Calm Calm - N/A   Mist
11:55 PM 32.0 °F - 30.2 °F 93% 30.46 in 0.8 mi Calm Calm - N/A   Mist